BEIDOU 18 (C57)

Last updated on Jan. 22, 2021, 6:27 a.m. UTC

1 40748U 15037A   21021.81498495 -.00000081  00000-0  00000-0 0  9993
2 40748  55.9448   8.9874 0004529 325.2986 248.6383  1.86233339 37384
UTC
Height (km)
Latitude
Longitude
Inclination
Orbital Period
UTC large
Height (km)
Speed (km/s)
/
Latitude / Longitude
Inclination (degrees)
Orbital Period (minutes)
Azimuth
Elevation
Range (km)
Doppler Factor
iOS Compass Heading
iOS Angle

Next 30 passes for location: Hong Kong

Rise time Rise Azimuth (degrees) Set time Set Azimuth (degrees) Duration Max altitude (degrees)

No matching passes for this satellites